SCP
-0 -0 -0 0 0 0 -0 -0 -0 -0 0 1 1 0 0 0 0 0 0 0 0 0 0 0 0 0 0 0 0 0 0 0 0 0 0 0 0 0 0 0 0 0 0
0 -0 -0 -0 -0 -0 -0 0 0 0 0 0 0 0 0 0 0 0 0 0 1 0 0 0 0 0 0 0 0 0 0 0 0 0 0 0 0 0 0 0 -0 0 0
0 -0 -0 -0 -0 -0 -0 0 0 -0 0 0 0 0 0 0 0 0 0 0 1 0 0 0 0 0 0 0 1 1 1 1 0 0 0 0 0 0 0 0 0 0 0
-0 0 0 -0 -0 -0 -0 0 0 0 0 0 0 1 0 0 0 0 0 0 0 0 0 0 0 0 0 0 0 0 1 1 1 0 0 -0 0 0 0 0 0 0 0
-0 0 -0 -0 -0 -0 -0 -0 0 0 0 0 1 1 1 1 1 0 1 0 0 0 0 0 0 0 0 1 1 1 1 1 1 0 0 0 0 0 0 0 0 0 0
0 -0 -0 -0 -1 -1 -1 -1 -1 -0 -0 0 0 0 1 1 1 1 1 1 1 1 1 1 1 1 0 0 1 1 1 1 1 0 0 0 0 0 0 0 0 0 0
0 -0 -0 -0 -0 -0 -0 -0 0 0 0 0 0 0 0 0 1 1 1 1 1 1 1 1 1 1 1 1 1 1 1 1 0 0 0 0 0 1 1 0 0 0 0
0 0 0 0 0 0 0 0 0 0 0 0 0 0 0 0 0 0 0 1 2 1 1 1 1 1 1 1 1 1 1 1 0 0 0 0 1 1 1 1 1 1 0
0 0 0 0 0 0 0 0 0 0 0 0 0 0 0 0 0 0 0 0 1 0 1 1 1 1 1 2 1 1 1 1 0 0 0 0 1 1 1 1 1 1 0
0 0 0 0 0 0 0 0 0 0 0 0 0 0 0 0 0 1 1 0 1 1 1 1 0 1 1 1 1 2 1 1 0 0 0 0 1 1 0 0 0 0 0
0 0 0 0 0 0 0 -0 -0 -0 0 0 0 0 0 0 0 0 0 0 0 1 0 1 1 1 0 1 1 1 2 1 0 0 0 1 2 1 0 0 0 0 0
0 0 0 0 0 0 -0 -0 -0 -0 -0 0 0 0 0 0 0 0 0 0 0 0 0 0 1 1 1 1 1 1 1 1 1 0 0 2 3 1 1 1 1 1 0
0 0 0 0 -0 0 0 -0 -0 -0 -0 -0 0 0 0 0 0 0 0 0 0 0 0 0 1 1 3 3 2 3 1 1 1 1 0 5 3 2 1 1 1 1 1
0 0 0 0 0 0 0 0 0 0 -0 -0 0 0 0 0 0 0 0 0 0 0 0 0 0 0 1 1 2 2 2 2 2 2 2 4 4 3 1 1 1 1 1
0 0 0 0 0 0 0 0 0 0 0 0 0 0 0 0 0 0 0 0 0 0 0 0 0 0 0 1 1 1 1 3 2 1 3 2 4 3 1 1 1 1 1
0 0 0 0 0 0 0 0 0 0 0 0 0 0 0 0 0 0 0 0 0 0 0 0 0 0 0 0 1 1 0 0 2 3 1 2 2 2 2 1 1 1 1
0 0 0 0 0 0 0 0 0 0 0 0 0 0 0 0 0 0 0 0 0 0 0 0 0 0 0 0 0 0 1 0 0 0 0 1 3 2 1 1 1 1 1
0 0 0 0 0 0 0 0 0 0 0 0 0 0 0 0 0 0 0 0 0 0 0 0 0 0 0 0 0 0 1 1 0 -0 -0 1 2 1 1 1 1 1 1
0 0 0 0 0 0 0 0 0 0 0 0 0 0 0 0 0 0 0 0 0 0 0 0 0 0 0 0 0 0 0 0 0 0 0 0 0 0 1 1 1 2 1
0 0 0 0 0 0 0 0 0 0 0 0 0 0 0 0 0 0 0 0 0 0 0 0 0 0 0 0 0 0 0 0 0 0 0 0 0 0 0 0 0 0 0
0 0 0 0 0 0 0 0 0 0 0 0 0 0 0 0 0 0 0 0 0 0 0 0 0 0 0 0 0 0 0 0 0 0 0 0 0 0 1 1 1 1 0
0 0 0 0 0 0 0 0 0 0 0 0 0 0 0 0 0 0 0 0 0 0 0 0 0 0 0 0 0 0 0 0 0 0 0 0 0 0 1 1 1 0 0
0 0 0 0 0 0 0 0 0 0 0 0 0 0 0 0 0 0 0 0 0 0 0 0 0 0 0 0 0 0 0 0 0 0 0 1 1 1 0 0 0 0 1
0 0 0 0 0 0 0 0 0 0 0 0 0 0 0 0 0 0 0 0 0 0 0 0 0 -0 -0 0 0 0 0 0 0 0 0 0 0 0 0 0 0 0 0
0 0 0 0 0 0 0 0 0 0 0 0 0 0 0 0 0 0 0 0 0 0 0 0 0 0 0 0 0 0 0 0 0 0 0 0 0 0 0 0 0 0 0
0 0 0 0 0 0 0 0 0 0 0 0 0 0 0 0 0 0 0 0 0 0 0 0 0 -0 0 0 0 0 0 0 0 0 0 0 0 0 0 0 0 0 0
Wind_Speed_500mb
16 14 12 13 16 13 9 6 6 8 1 17 21 12 13 20 26 28 27 24 23 24 24 25 24 23 22 24 32 36 28 25 25 23 24 22 19 18 14 13 16 18 11
21 16 15 10 11 14 13 9 6 5 7 13 12 12 11 11 22 26 23 20 21 25 23 23 22 22 20 26 37 33 25 22 27 24 23 23 21 18 15 17 29 19 14
19 20 20 12 7 9 10 9 8 6 7 11 15 18 10 22 25 26 22 17 15 19 21 22 23 20 21 27 35 32 26 25 27 25 24 21 22 20 16 20 19 18 15
19 18 19 12 10 8 7 9 8 8 5 7 11 13 14 15 21 27 26 19 18 19 22 25 22 24 27 27 35 34 32 27 25 24 24 22 23 24 20 22 19 16 14
20 17 17 13 10 8 8 9 7 5 7 6 6 9 13 16 22 30 29 25 26 25 26 27 28 28 31 31 32 39 36 32 28 26 22 25 26 26 24 23 20 17 13
18 17 15 11 13 12 9 6 6 5 2 9 16 19 17 23 23 27 28 28 28 28 29 31 33 34 36 39 36 35 41 41 36 28 28 28 31 33 30 27 25 21 18
17 19 17 15 15 14 13 12 10 7 4 8 11 16 18 21 21 21 24 28 29 30 32 33 34 34 36 42 45 41 39 42 43 38 38 36 33 43 42 37 31 27 24
19 22 22 22 23 24 22 21 20 18 15 15 23 24 18 25 31 35 37 31 31 35 40 39 38 36 37 41 49 51 47 45 42 42 44 41 42 50 46 43 40 36 31
22 20 25 27 35 33 33 30 29 28 27 26 26 26 22 16 16 18 27 35 39 49 49 42 39 42 40 41 47 53 52 51 46 45 49 48 49 55 50 49 44 43 40
27 29 30 29 30 31 38 37 36 35 34 32 30 29 25 28 23 27 27 33 33 49 51 43 64 46 45 45 47 53 58 58 53 53 54 56 56 61 58 55 53 49 46
34 34 32 33 32 30 29 37 36 41 40 39 41 39 33 29 33 31 37 38 39 45 51 47 42 42 61 57 55 57 58 54 56 58 62 59 68 69 62 61 59 55 52
34 31 29 30 31 31 28 28 30 33 37 37 38 37 35 34 37 41 39 44 41 43 42 45 46 45 54 52 55 58 60 57 61 62 62 66 65 72 66 67 64 60 57
29 26 27 29 29 26 25 24 25 25 27 36 44 44 42 37 35 36 36 33 34 37 34 39 33 32 35 45 52 64 60 55 69 64 67 69 77 79 77 73 70 68 66
24 24 23 26 29 31 25 26 27 31 32 34 41 49 48 35 38 40 33 33 32 30 37 36 36 40 38 41 49 50 62 74 62 67 70 74 79 83 83 74 75 75 72
22 22 23 22 25 26 28 26 29 31 39 38 39 48 52 40 42 36 34 32 30 30 31 34 37 39 45 39 39 52 66 68 83 77 72 76 78 81 87 77 76 76 77
20 18 17 20 24 25 34 39 38 43 38 35 34 46 42 39 42 38 33 32 31 31 31 33 34 42 43 41 48 49 53 93 89 101 88 75 54 70 77 74 74 75 75
14 14 18 21 27 33 34 33 35 40 32 31 32 34 38 38 38 35 31 31 31 33 33 33 32 33 36 40 54 50 53 60 81 84 73 73 90 72 68 73 71 71 71
11 14 18 20 25 32 33 32 29 35 31 30 30 31 38 35 38 37 32 29 31 30 35 40 37 36 33 37 43 52 50 48 78 89 104 46 49 62 55 56 58 61 67
7 13 19 25 30 31 34 29 29 30 30 30 30 33 38 35 37 36 33 30 28 23 32 32 34 34 35 34 38 43 44 46 49 55 54 79 70 67 60 58 62 61 63
12 13 19 24 31 38 34 33 31 28 26 27 29 32 34 34 34 32 27 34 29 27 26 31 32 32 32 32 36 40 42 45 46 49 50 51 55 60 80 94 101 82 91
9 12 18 26 36 40 34 35 30 28 27 29 29 34 35 34 38 36 29 30 28 25 29 32 34 35 33 28 34 31 37 40 46 50 47 47 47 52 52 55 82 90 89
7 12 19 28 37 39 30 28 26 27 26 30 33 36 36 35 34 37 33 29 31 26 29 32 34 38 36 31 29 32 31 29 35 42 46 45 44 45 45 48 54 74 90
8 12 20 29 33 36 34 27 26 25 26 32 36 38 39 44 35 39 34 29 30 31 32 34 34 35 38 38 30 18 16 15 15 19 29 30 38 43 42 40 46 52 69
8 12 19 26 31 30 32 26 29 28 31 33 34 39 37 42 41 37 33 32 30 30 35 31 34 38 35 36 37 25 20 29 22 19 14 11 11 14 21 26 29 41 47
9 12 18 23 26 26 27 29 27 28 26 29 32 38 36 39 38 36 34 33 33 32 30 31 34 37 34 32 33 33 31 21 22 24 25 14 8 5 3 2 6 17 26
8 12 17 21 22 24 25 28 29 28 31 31 33 35 38 39 42 36 34 34 33 34 32 33 31 36 39 38 30 27 25 25 25 16 14 15 12 10 2 3 1 6 15
Wind_Direction_500mb
39 18 40 60 69 55 51 33 22 13 210 183 191 179 175 182 190 182 174 171 170 178 181 178 180 182 185 183 172 163 167 175 179 175 175 175 167 159 159 151 146 146 182
37 33 15 48 65 75 55 47 50 45 101 167 185 158 15 253 201 200 189 187 185 185 189 191 194 192 190 186 179 178 179 185 183 179 178 177 173 168 161 146 131 195 145
41 41 21 21 38 88 86 69 64 75 87 163 174 192 196 200 195 213 216 214 213 207 207 213 214 212 201 194 190 191 187 182 178 182 181 176 180 176 167 154 147 150 137
56 39 41 35 16 22 50 78 62 77 98 119 167 185 195 196 199 207 217 229 240 240 235 235 232 227 221 208 202 199 195 189 186 187 185 190 203 189 176 171 165 156 146
60 42 57 44 36 38 28 29 80 103 130 157 165 178 181 194 194 204 217 226 233 238 241 245 244 236 229 219 215 211 207 203 204 201 200 211 207 209 192 186 183 174 165
59 50 57 52 56 53 52 41 17 4 206 201 193 201 196 206 213 217 226 236 240 240 239 239 241 241 231 226 224 220 220 222 222 217 217 220 211 225 214 201 199 196 192
61 61 53 46 33 32 34 38 33 24 356 279 252 232 231 236 237 242 246 229 238 242 243 243 244 238 233 226 229 229 227 227 227 227 228 227 224 225 224 214 212 211 210
63 67 60 48 41 42 38 35 30 25 11 338 336 349 323 286 287 277 258 260 247 248 243 241 239 239 236 231 228 231 235 236 235 226 232 233 228 234 226 222 221 220 220
72 65 70 63 60 66 63 55 45 36 31 21 8 4 4 346 305 291 286 278 266 275 260 250 252 250 237 230 233 236 235 239 236 237 233 234 237 238 227 226 228 229 229
77 81 69 74 69 65 59 53 47 39 31 25 17 7 1 8 346 341 309 286 272 259 262 263 248 258 255 243 236 234 239 239 239 235 236 235 236 239 231 229 230 231 235
79 82 82 81 74 67 62 53 38 31 23 19 15 11 10 3 354 353 329 316 304 288 282 278 267 259 252 248 242 241 238 240 240 239 235 239 237 239 233 232 233 232 235
88 84 78 70 55 56 54 52 39 26 16 9 7 1 356 351 344 343 337 322 306 301 297 291 282 266 256 255 253 251 243 238 238 235 237 239 244 245 235 233 233 234 237
85 75 68 60 56 51 43 40 32 25 18 3 356 353 347 346 337 335 330 319 311 304 299 292 293 292 259 248 250 241 238 233 238 236 238 237 239 245 240 234 236 239 241
85 77 61 50 31 22 28 23 19 8 9 0 352 345 342 345 336 332 325 321 311 305 297 294 289 277 282 269 251 245 242 232 232 234 237 241 238 243 245 237 238 239 241
77 66 50 43 30 22 14 19 6 4 350 349 344 337 336 341 334 334 328 323 316 309 303 295 290 285 275 271 267 256 246 241 232 233 237 239 233 242 247 240 240 242 242
75 62 47 38 28 15 357 352 352 345 347 346 345 334 338 341 333 332 328 320 318 311 308 302 294 282 279 278 266 261 261 246 241 240 235 233 237 239 244 238 239 243 243
62 56 44 26 360 343 356 1 353 346 355 355 353 349 352 348 343 342 328 322 316 313 314 309 307 296 282 272 265 265 261 253 237 235 250 244 232 238 239 236 237 241 244
65 32 356 4 6 354 1 355 356 346 353 352 350 348 349 347 343 343 335 328 315 324 305 315 314 303 296 284 275 265 261 259 242 255 264 261 244 238 237 237 232 238 240
7 345 348 341 350 356 349 354 351 352 351 350 351 346 343 345 344 346 340 334 330 322 303 320 323 323 311 299 284 275 267 262 261 264 260 250 259 245 239 238 243 254 247
310 343 341 339 339 341 347 350 349 351 351 353 351 347 352 349 348 351 343 339 342 336 334 331 328 321 319 314 297 284 267 253 251 253 254 251 257 259 251 250 261 260 253
306 332 336 339 342 351 356 357 359 360 355 356 359 359 356 354 355 357 354 349 349 345 342 334 336 340 340 321 313 294 274 261 250 249 250 250 252 252 251 248 245 247 247
312 345 348 350 351 357 4 9 9 3 2 6 358 356 354 352 351 358 355 352 351 351 343 342 347 348 341 340 329 303 279 266 247 247 246 249 251 254 248 254 249 246 245
67 31 3 1 2 3 18 10 15 9 6 4 2 357 359 358 358 357 357 356 354 356 355 353 346 351 343 343 334 304 309 286 319 242 235 245 245 248 248 246 250 250 246
79 23 12 7 9 10 15 17 19 19 13 6 1 3 5 1 4 4 7 3 354 359 3 350 351 354 342 339 335 334 302 283 290 273 242 240 233 242 243 240 245 246 248
72 37 21 15 17 19 21 25 28 21 16 7 11 10 9 6 6 15 11 9 9 5 5 1 358 356 358 350 346 338 340 309 282 272 270 251 252 266 234 283 263 244 249
56 23 15 19 24 24 27 25 24 20 16 11 8 9 10 12 15 11 11 9 4 1 356 1 358 354 355 2 354 358 354 342 314 321 313 298 284 245 209 169 274 262 251
Wind_Speed_850mb
16 14 12 13 16 13 9 6 6 8 1 17 21 12 13 20 26 28 27 24 23 24 24 25 24 23 22 24 32 36 28 25 25 23 24 22 19 18 14 13 16 18 11
21 16 15 10 11 14 13 9 6 5 7 13 12 12 11 11 22 26 23 20 21 25 23 23 22 22 20 26 37 33 25 22 27 24 23 23 21 18 15 17 29 19 14
19 20 20 12 7 9 10 9 8 6 7 11 15 18 10 22 25 26 22 17 15 19 21 22 23 20 21 27 35 32 26 25 27 25 24 21 22 20 16 20 19 18 15
19 18 19 12 10 8 7 9 8 8 5 7 11 13 14 15 21 27 26 19 18 19 22 25 22 24 27 27 35 34 32 27 25 24 24 22 23 24 20 22 19 16 14
20 17 17 13 10 8 8 9 7 5 7 6 6 9 13 16 22 30 29 25 26 25 26 27 28 28 31 31 32 39 36 32 28 26 22 25 26 26 24 23 20 17 13
18 17 15 11 13 12 9 6 6 5 2 9 16 19 17 23 23 27 28 28 28 28 29 31 33 34 36 39 36 35 41 41 36 28 28 28 31 33 30 27 25 21 18
17 19 17 15 15 14 13 12 10 7 4 8 11 16 18 21 21 21 24 28 29 30 32 33 34 34 36 42 45 41 39 42 43 38 38 36 33 43 42 37 31 27 24
19 22 22 22 23 24 22 21 20 18 15 15 23 24 18 25 31 35 37 31 31 35 40 39 38 36 37 41 49 51 47 45 42 42 44 41 42 50 46 43 40 36 31
22 20 25 27 35 33 33 30 29 28 27 26 26 26 22 16 16 18 27 35 39 49 49 42 39 42 40 41 47 53 52 51 46 45 49 48 49 55 50 49 44 43 40
27 29 30 29 30 31 38 37 36 35 34 32 30 29 25 28 23 27 27 33 33 49 51 43 64 46 45 45 47 53 58 58 53 53 54 56 56 61 58 55 53 49 46
34 34 32 33 32 30 29 37 36 41 40 39 41 39 33 29 33 31 37 38 39 45 51 47 42 42 61 57 55 57 58 54 56 58 62 59 68 69 62 61 59 55 52
34 31 29 30 31 31 28 28 30 33 37 37 38 37 35 34 37 41 39 44 41 43 42 45 46 45 54 52 55 58 60 57 61 62 62 66 65 72 66 67 64 60 57
29 26 27 29 29 26 25 24 25 25 27 36 44 44 42 37 35 36 36 33 34 37 34 39 33 32 35 45 52 64 60 55 69 64 67 69 77 79 77 73 70 68 66
24 24 23 26 29 31 25 26 27 31 32 34 41 49 48 35 38 40 33 33 32 30 37 36 36 40 38 41 49 50 62 74 62 67 70 74 79 83 83 74 75 75 72
22 22 23 22 25 26 28 26 29 31 39 38 39 48 52 40 42 36 34 32 30 30 31 34 37 39 45 39 39 52 66 68 83 77 72 76 78 81 87 77 76 76 77
20 18 17 20 24 25 34 39 38 43 38 35 34 46 42 39 42 38 33 32 31 31 31 33 34 42 43 41 48 49 53 93 89 101 88 75 54 70 77 74 74 75 75
14 14 18 21 27 33 34 33 35 40 32 31 32 34 38 38 38 35 31 31 31 33 33 33 32 33 36 40 54 50 53 60 81 84 73 73 90 72 68 73 71 71 71
11 14 18 20 25 32 33 32 29 35 31 30 30 31 38 35 38 37 32 29 31 30 35 40 37 36 33 37 43 52 50 48 78 89 104 46 49 62 55 56 58 61 67
7 13 19 25 30 31 34 29 29 30 30 30 30 33 38 35 37 36 33 30 28 23 32 32 34 34 35 34 38 43 44 46 49 55 54 79 70 67 60 58 62 61 63
12 13 19 24 31 38 34 33 31 28 26 27 29 32 34 34 34 32 27 34 29 27 26 31 32 32 32 32 36 40 42 45 46 49 50 51 55 60 80 94 101 82 91
9 12 18 26 36 40 34 35 30 28 27 29 29 34 35 34 38 36 29 30 28 25 29 32 34 35 33 28 34 31 37 40 46 50 47 47 47 52 52 55 82 90 89
7 12 19 28 37 39 30 28 26 27 26 30 33 36 36 35 34 37 33 29 31 26 29 32 34 38 36 31 29 32 31 29 35 42 46 45 44 45 45 48 54 74 90
8 12 20 29 33 36 34 27 26 25 26 32 36 38 39 44 35 39 34 29 30 31 32 34 34 35 38 38 30 18 16 15 15 19 29 30 38 43 42 40 46 52 69
8 12 19 26 31 30 32 26 29 28 31 33 34 39 37 42 41 37 33 32 30 30 35 31 34 38 35 36 37 25 20 29 22 19 14 11 11 14 21 26 29 41 47
9 12 18 23 26 26 27 29 27 28 26 29 32 38 36 39 38 36 34 33 33 32 30 31 34 37 34 32 33 33 31 21 22 24 25 14 8 5 3 2 6 17 26
8 12 17 21 22 24 25 28 29 28 31 31 33 35 38 39 42 36 34 34 33 34 32 33 31 36 39 38 30 27 25 25 25 16 14 15 12 10 2 3 1 6 15
Wind_Direction_850mb
39 18 40 60 69 55 51 33 22 13 210 183 191 179 175 182 190 182 174 171 170 178 181 178 180 182 185 183 172 163 167 175 179 175 175 175 167 159 159 151 146 146 182
37 33 15 48 65 75 55 47 50 45 101 167 185 158 15 253 201 200 189 187 185 185 189 191 194 192 190 186 179 178 179 185 183 179 178 177 173 168 161 146 131 195 145
41 41 21 21 38 88 86 69 64 75 87 163 174 192 196 200 195 213 216 214 213 207 207 213 214 212 201 194 190 191 187 182 178 182 181 176 180 176 167 154 147 150 137
56 39 41 35 16 22 50 78 62 77 98 119 167 185 195 196 199 207 217 229 240 240 235 235 232 227 221 208 202 199 195 189 186 187 185 190 203 189 176 171 165 156 146
60 42 57 44 36 38 28 29 80 103 130 157 165 178 181 194 194 204 217 226 233 238 241 245 244 236 229 219 215 211 207 203 204 201 200 211 207 209 192 186 183 174 165
59 50 57 52 56 53 52 41 17 4 206 201 193 201 196 206 213 217 226 236 240 240 239 239 241 241 231 226 224 220 220 222 222 217 217 220 211 225 214 201 199 196 192
61 61 53 46 33 32 34 38 33 24 356 279 252 232 231 236 237 242 246 229 238 242 243 243 244 238 233 226 229 229 227 227 227 227 228 227 224 225 224 214 212 211 210
63 67 60 48 41 42 38 35 30 25 11 338 336 349 323 286 287 277 258 260 247 248 243 241 239 239 236 231 228 231 235 236 235 226 232 233 228 234 226 222 221 220 220
72 65 70 63 60 66 63 55 45 36 31 21 8 4 4 346 305 291 286 278 266 275 260 250 252 250 237 230 233 236 235 239 236 237 233 234 237 238 227 226 228 229 229
77 81 69 74 69 65 59 53 47 39 31 25 17 7 1 8 346 341 309 286 272 259 262 263 248 258 255 243 236 234 239 239 239 235 236 235 236 239 231 229 230 231 235
79 82 82 81 74 67 62 53 38 31 23 19 15 11 10 3 354 353 329 316 304 288 282 278 267 259 252 248 242 241 238 240 240 239 235 239 237 239 233 232 233 232 235
88 84 78 70 55 56 54 52 39 26 16 9 7 1 356 351 344 343 337 322 306 301 297 291 282 266 256 255 253 251 243 238 238 235 237 239 244 245 235 233 233 234 237
85 75 68 60 56 51 43 40 32 25 18 3 356 353 347 346 337 335 330 319 311 304 299 292 293 292 259 248 250 241 238 233 238 236 238 237 239 245 240 234 236 239 241
85 77 61 50 31 22 28 23 19 8 9 0 352 345 342 345 336 332 325 321 311 305 297 294 289 277 282 269 251 245 242 232 232 234 237 241 238 243 245 237 238 239 241
77 66 50 43 30 22 14 19 6 4 350 349 344 337 336 341 334 334 328 323 316 309 303 295 290 285 275 271 267 256 246 241 232 233 237 239 233 242 247 240 240 242 242
75 62 47 38 28 15 357 352 352 345 347 346 345 334 338 341 333 332 328 320 318 311 308 302 294 282 279 278 266 261 261 246 241 240 235 233 237 239 244 238 239 243 243
62 56 44 26 360 343 356 1 353 346 355 355 353 349 352 348 343 342 328 322 316 313 314 309 307 296 282 272 265 265 261 253 237 235 250 244 232 238 239 236 237 241 244
65 32 356 4 6 354 1 355 356 346 353 352 350 348 349 347 343 343 335 328 315 324 305 315 314 303 296 284 275 265 261 259 242 255 264 261 244 238 237 237 232 238 240
7 345 348 341 350 356 349 354 351 352 351 350 351 346 343 345 344 346 340 334 330 322 303 320 323 323 311 299 284 275 267 262 261 264 260 250 259 245 239 238 243 254 247
310 343 341 339 339 341 347 350 349 351 351 353 351 347 352 349 348 351 343 339 342 336 334 331 328 321 319 314 297 284 267 253 251 253 254 251 257 259 251 250 261 260 253
306 332 336 339 342 351 356 357 359 360 355 356 359 359 356 354 355 357 354 349 349 345 342 334 336 340 340 321 313 294 274 261 250 249 250 250 252 252 251 248 245 247 247
312 345 348 350 351 357 4 9 9 3 2 6 358 356 354 352 351 358 355 352 351 351 343 342 347 348 341 340 329 303 279 266 247 247 246 249 251 254 248 254 249 246 245
67 31 3 1 2 3 18 10 15 9 6 4 2 357 359 358 358 357 357 356 354 356 355 353 346 351 343 343 334 304 309 286 319 242 235 245 245 248 248 246 250 250 246
79 23 12 7 9 10 15 17 19 19 13 6 1 3 5 1 4 4 7 3 354 359 3 350 351 354 342 339 335 334 302 283 290 273 242 240 233 242 243 240 245 246 248
72 37 21 15 17 19 21 25 28 21 16 7 11 10 9 6 6 15 11 9 9 5 5 1 358 356 358 350 346 338 340 309 282 272 270 251 252 266 234 283 263 244 249
56 23 15 19 24 24 27 25 24 20 16 11 8 9 10 12 15 11 11 9 4 1 356 1 358 354 355 2 354 358 354 342 314 321 313 298 284 245 209 169 274 262 251